Location: Beckers Corners
(42.5484°N, 73.8110°W)
Time: 00:35:11
(UTC+00:00)

ISS - Visible Passes

Search period start: 16 October 2024 00:00
Search period end: 26 October 2024 00:00
Orbit: 411 x 423 km, 51.6° (Epoch: 15 October)

Date Brightness Start Highest point End Pass type
(mag) Time Alt. Az. Time Alt. Az. Time Alt. Az.
16 Oct -2.2 10:33:38 10° SSW 10:36:44 37° SE 10:39:49 10° ENE visible
17 Oct -1.4 09:45:54 10° S 09:48:32 22° SE 09:51:09 10° E visible
18 Oct -0.9 08:59:37 12° SE 09:00:21 13° SE 09:01:56 10° ESE visible
18 Oct -3.8 10:33:20 10° WSW 10:36:40 80° NNW 10:39:59 10° NE visible
19 Oct -3.4 09:46:46 28° SSW 09:48:16 60° SE 09:51:33 10° ENE visible
20 Oct -1.8 09:00:46 29° ESE 09:00:46 29° ESE 09:02:57 10° ENE visible
20 Oct -2.9 10:33:42 11° W 10:36:37 35° NNW 10:39:43 10° NE visible
21 Oct -3.6 09:47:31 46° WNW 09:48:02 52° NNW 09:51:19 10° NE visible
22 Oct -1.7 09:01:12 26° NE 09:01:12 26° NE 09:02:48 10° NE visible
22 Oct -2.2 10:34:07 11° WNW 10:36:34 22° NNW 10:39:15 10° NE visible
23 Oct -2.5 09:47:41 27° NNW 09:47:50 27° NNW 09:50:44 10° NE visible
24 Oct -1.2 09:01:08 18° NE 09:01:08 18° NE 09:02:12 10° NE visible
24 Oct -1.7 10:34:09 10° NW 10:36:28 17° N 10:38:47 10° NE visible
25 Oct -1.9 09:47:24 19° NNW 09:47:34 19° N 09:50:04 10° NE visible
